TimeMDT,TemperatureF,Dew PointF,Humidity,Sea Level PressureIn,VisibilityMPH,Wind Direction,Wind SpeedMPH,Gust SpeedMPH,PrecipitationIn,Events,Conditions,WindDirDegrees,DateUTC
12:53 AM,70.0,39.9,33,29.80,10.0,West,3.5,-,N/A,,Clear,260,2013-07-04 06:53:00
1:53 AM,68.0,39.9,36,29.80,10.0,Calm,Calm,-,N/A,,Clear,0,2013-07-04 07:53:00
2:53 AM,66.9,41.0,39,29.80,10.0,NE,8.1,-,N/A,,Clear,50,2013-07-04 08:53:00
3:53 AM,63.0,43.0,48,29.79,10.0,NE,3.5,-,N/A,,Clear,50,2013-07-04 09:53:00
4:53 AM,64.0,42.1,45,29.77,10.0,NE,5.8,-,N/A,,Clear,50,2013-07-04 10:53:00
5:53 AM,61.0,43.0,52,29.78,10.0,NE,6.9,-,N/A,,Clear,40,2013-07-04 11:53:00
6:53 AM,59.0,45.0,60,29.81,10.0,ESE,6.9,-,N/A,,Clear,120,2013-07-04 12:53:00
7:53 AM,66.9,46.0,47,29.81,10.0,NE,3.5,-,N/A,,Clear,40,2013-07-04 13:53:00
8:53 AM,71.1,44.1,38,29.82,10.0,Calm,Calm,-,N/A,,Clear,0,2013-07-04 14:53:00
9:53 AM,78.1,39.0,25,29.81,10.0,Calm,Calm,-,N/A,,Clear,0,2013-07-04 15:53:00
10:53 AM,82.0,42.1,24,29.79,10.0,SSE,4.6,-,N/A,,Clear,150,2013-07-04 16:53:00
11:53 AM,87.1,39.9,19,29.77,10.0,Calm,Calm,-,N/A,,Clear,0,2013-07-04 17:53:00
12:53 PM,89.1,37.9,16,29.76,10.0,WSW,8.1,-,N/A,,Clear,240,2013-07-04 18:53:00
1:53 PM,89.1,39.0,17,29.76,10.0,West,10.4,19.6,N/A,,Partly Cloudy,280,2013-07-04 19:53:00
2:53 PM,89.1,39.0,17,29.73,10.0,SW,9.2,-,N/A,,Partly Cloudy,230,2013-07-04 20:53:00
3:53 PM,90.0,37.0,15,29.72,10.0,Variable,3.5,-,N/A,,Clear,0,2013-07-04 21:53:00
4:53 PM,90.0,37.0,15,29.69,10.0,Calm,Calm,-,N/A,,Scattered Clouds,0,2013-07-04 22:53:00
5:53 PM,84.9,41.0,21,29.73,9.0,NNW,6.9,-,0.00,Rain-Thunderstorm,Light Rain,340,2013-07-04 23:53:00
6:07 PM,86.0,42.8,22,29.98,10.0,NNW,3.5,-,0.00,,Mostly Cloudy,330,2013-07-05 00:07:00
6:53 PM,86.0,42.1,21,29.72,10.0,South,4.6,-,0.00,,Partly Cloudy,190,2013-07-05 00:53:00
7:53 PM,81.0,48.0,31,29.71,10.0,Calm,Calm,-,N/A,,Clear,0,2013-07-05 01:53:00
8:53 PM,71.1,48.9,45,29.74,10.0,Calm,Calm,-,N/A,,Partly Cloudy,0,2013-07-05 02:53:00
9:53 PM,68.0,44.1,42,29.74,10.0,East,6.9,-,N/A,,Clear,80,2013-07-05 03:53:00
10:53 PM,66.9,41.0,39,29.75,10.0,NE,3.5,-,N/A,,Partly Cloudy,50,2013-07-05 04:53:00
11:53 PM,63.0,43.0,48,29.76,10.0,Calm,Calm,-,N/A,,Clear,0,2013-07-05 05:53:00